Location: Northcutt
(34.7304°N, 84.4305°W)
Time: 14:30:31
(UTC+00:00)

Hubble Space Telescope - Pass Details

Date: 12 August 2022
Orbit: 531 x 535 km, 28.5° (Epoch: 27 September)

Event Time Altitude Azimuth Distance (km) Brightness Sun altitude
Rises 01:14:21 0° 257° (WSW) 2,667 5.2 -9.3°
Reaches altitude 10° 01:16:45 10° 248° (WSW) 1,777 4.0 -9.7°
Maximum altitude 01:20:28 33° 183° (S) 898 1.7 -10.4°
Enters shadow 01:23:16 16° 125° (SE) 1,460 2.3 -10.9°
